Year,Month,Day,Hour,Minute,Value (Times are PST for temperature in C)
2016,04,28,00,00,10.00
2016,04,28,00,01,10.00
2016,04,28,00,02,9.90
2016,04,28,00,03,9.90
2016,04,28,00,04,9.90
2016,04,28,00,05,9.80
2016,04,28,00,06,9.90
2016,04,28,00,07,9.90
2016,04,28,00,08,9.90
2016,04,28,00,09,9.90
2016,04,28,00,10,9.90
2016,04,28,00,11,9.90
2016,04,28,00,12,9.90
2016,04,28,00,13,9.90
2016,04,28,00,14,9.90
2016,04,28,00,15,9.90
2016,04,28,00,16,9.90
2016,04,28,00,17,9.80
2016,04,28,00,18,9.80
2016,04,28,00,19,9.80
2016,04,28,00,20,9.80
2016,04,28,00,21,9.70
2016,04,28,00,22,9.70
2016,04,28,00,23,9.70
2016,04,28,00,24,9.60
2016,04,28,00,25,9.60
2016,04,28,00,26,9.50
2016,04,28,00,27,9.50
2016,04,28,00,28,9.40
2016,04,28,00,29,9.40
2016,04,28,00,30,9.40
2016,04,28,00,31,9.30
2016,04,28,00,32,9.30
2016,04,28,00,33,9.30
2016,04,28,00,34,9.30
2016,04,28,00,35,9.20
2016,04,28,00,36,9.20
2016,04,28,00,37,9.10
2016,04,28,00,38,9.10
2016,04,28,00,39,9.00
2016,04,28,00,40,8.90
2016,04,28,00,41,8.90
2016,04,28,00,42,8.80
2016,04,28,00,43,8.80
2016,04,28,00,44,8.80
2016,04,28,00,45,8.70
2016,04,28,00,46,8.70
2016,04,28,00,47,8.70
2016,04,28,00,48,8.60
2016,04,28,00,49,8.60
2016,04,28,00,50,8.50
2016,04,28,00,51,8.50
2016,04,28,00,52,8.50
2016,04,28,00,53,8.40
2016,04,28,00,54,8.40
2016,04,28,00,55,8.40
2016,04,28,00,56,8.40
2016,04,28,00,57,8.40
2016,04,28,00,58,8.30
2016,04,28,00,59,8.30
2016,04,28,01,00,8.30
2016,04,28,01,01,8.20
2016,04,28,01,02,8.20
2016,04,28,01,03,8.20
2016,04,28,01,04,8.20
2016,04,28,01,05,8.10
2016,04,28,01,06,8.10
2016,04,28,01,07,8.10
2016,04,28,01,08,8.10
2016,04,28,01,09,8.00
2016,04,28,01,10,8.00
2016,04,28,01,11,7.90
2016,04,28,01,12,7.90
2016,04,28,01,13,7.90
2016,04,28,01,14,7.80
2016,04,28,01,15,7.80
2016,04,28,01,16,7.80
2016,04,28,01,17,7.80
2016,04,28,01,18,7.80
2016,04,28,01,19,7.80
2016,04,28,01,20,7.70
2016,04,28,01,21,7.70
2016,04,28,01,22,7.70
2016,04,28,01,23,7.60
2016,04,28,01,24,7.60
2016,04,28,01,25,7.60
2016,04,28,01,26,7.60
2016,04,28,01,27,7.50
2016,04,28,01,28,7.50
2016,04,28,01,29,7.50
2016,04,28,01,30,7.40
2016,04,28,01,31,7.40
2016,04,28,01,32,7.40
2016,04,28,01,33,7.40
2016,04,28,01,34,7.40
2016,04,28,01,35,7.40
2016,04,28,01,36,7.40
2016,04,28,01,37,7.40
2016,04,28,01,38,7.40
2016,04,28,01,39,7.40
2016,04,28,01,40,7.40
2016,04,28,01,41,7.40
2016,04,28,01,42,7.40
2016,04,28,01,43,7.40
2016,04,28,01,44,7.40
2016,04,28,01,45,7.40
2016,04,28,01,46,7.30
2016,04,28,01,47,7.30
2016,04,28,01,48,7.30
2016,04,28,01,49,7.30
2016,04,28,01,50,7.30
2016,04,28,01,51,7.30
2016,04,28,01,52,7.30
2016,04,28,01,53,7.30
2016,04,28,01,54,7.20
2016,04,28,01,55,7.20
2016,04,28,01,56,7.20
2016,04,28,01,57,7.20
2016,04,28,01,58,7.20
2016,04,28,01,59,7.20
2016,04,28,02,00,7.20
2016,04,28,02,01,7.20
2016,04,28,02,02,7.20
2016,04,28,02,03,7.20
2016,04,28,02,04,7.20
2016,04,28,02,05,7.20
2016,04,28,02,06,7.20
2016,04,28,02,07,7.10
2016,04,28,02,08,7.10
2016,04,28,02,09,7.10
2016,04,28,02,10,7.10
2016,04,28,02,11,7.10
2016,04,28,02,12,7.10
2016,04,28,02,13,7.10
2016,04,28,02,14,7.10
2016,04,28,02,15,7.10
2016,04,28,02,16,7.10
2016,04,28,02,17,7.10
2016,04,28,02,18,7.10
2016,04,28,02,19,7.10
2016,04,28,02,20,7.10
2016,04,28,02,21,7.10
2016,04,28,02,22,7.10
2016,04,28,02,23,7.00
2016,04,28,02,24,7.00
2016,04,28,02,25,7.00
2016,04,28,02,26,7.00
2016,04,28,02,27,7.00
2016,04,28,02,28,6.90
2016,04,28,02,29,6.90
2016,04,28,02,30,6.90
2016,04,28,02,31,6.90
2016,04,28,02,32,6.80
2016,04,28,02,33,6.80
2016,04,28,02,34,6.80
2016,04,28,02,35,6.80
2016,04,28,02,36,6.80
2016,04,28,02,37,6.80
2016,04,28,02,38,6.80
2016,04,28,02,39,6.80
2016,04,28,02,40,6.70
2016,04,28,02,41,6.70
2016,04,28,02,42,6.70
2016,04,28,02,43,6.70
2016,04,28,02,44,6.70
2016,04,28,02,45,6.70
2016,04,28,02,46,6.70
2016,04,28,02,47,6.60
2016,04,28,02,48,6.60
2016,04,28,02,49,6.60
2016,04,28,02,50,6.60
2016,04,28,02,51,6.50
2016,04,28,02,52,6.50
2016,04,28,02,53,6.50
2016,04,28,02,54,6.50
2016,04,28,02,55,6.40
2016,04,28,02,56,6.40
2016,04,28,02,57,6.40
2016,04,28,02,58,6.40
2016,04,28,02,59,6.30
2016,04,28,03,00,6.30
2016,04,28,03,01,6.30
2016,04,28,03,02,6.30
2016,04,28,03,03,6.30
2016,04,28,03,04,6.20
2016,04,28,03,05,6.20
2016,04,28,03,06,6.20
2016,04,28,03,07,6.20
2016,04,28,03,08,6.20
2016,04,28,03,09,6.20
2016,04,28,03,10,6.20
2016,04,28,03,11,6.10
2016,04,28,03,12,6.10
2016,04,28,03,13,6.10
2016,04,28,03,14,6.10
2016,04,28,03,15,6.10
2016,04,28,03,16,6.00
2016,04,28,03,17,6.00
2016,04,28,03,18,6.00
2016,04,28,03,19,6.00
2016,04,28,03,20,5.90
2016,04,28,03,21,5.90
2016,04,28,03,22,5.90
2016,04,28,03,23,5.90
2016,04,28,03,24,5.90
2016,04,28,03,25,5.90
2016,04,28,03,26,5.90
2016,04,28,03,27,5.90
2016,04,28,03,28,5.90
2016,04,28,03,29,5.90
2016,04,28,03,30,5.80
2016,04,28,03,31,5.80
2016,04,28,03,32,5.80
2016,04,28,03,33,5.80
2016,04,28,03,34,5.80
2016,04,28,03,35,5.80
2016,04,28,03,36,5.80
2016,04,28,03,37,5.80
2016,04,28,03,38,5.80
2016,04,28,03,39,5.90
2016,04,28,03,40,5.90
2016,04,28,03,41,5.90
2016,04,28,03,42,5.90
2016,04,28,03,43,5.90
2016,04,28,03,44,5.90
2016,04,28,03,45,5.90
2016,04,28,03,46,5.90
2016,04,28,03,47,5.90
2016,04,28,03,48,5.90
2016,04,28,03,49,5.90
2016,04,28,03,50,5.90
2016,04,28,03,51,5.90
2016,04,28,03,52,5.90
2016,04,28,03,53,5.90
2016,04,28,03,54,5.80
2016,04,28,03,55,5.80
2016,04,28,03,56,5.80
2016,04,28,03,57,5.80
2016,04,28,03,58,5.80
2016,04,28,03,59,5.80
2016,04,28,04,00,5.70
2016,04,28,04,01,5.70
2016,04,28,04,02,5.70
2016,04,28,04,03,5.70
2016,04,28,04,04,5.70
2016,04,28,04,05,5.70
2016,04,28,04,06,5.70
2016,04,28,04,07,5.70
2016,04,28,04,08,5.70
2016,04,28,04,09,5.70
2016,04,28,04,10,5.70
2016,04,28,04,11,5.60
2016,04,28,04,12,5.60
2016,04,28,04,13,5.60
2016,04,28,04,14,5.60
2016,04,28,04,15,5.60
2016,04,28,04,16,5.60
2016,04,28,04,17,5.50
2016,04,28,04,18,5.50
2016,04,28,04,19,5.50
2016,04,28,04,20,5.40
2016,04,28,04,21,5.40
2016,04,28,04,22,5.40
2016,04,28,04,23,5.40
2016,04,28,04,24,5.40
2016,04,28,04,25,5.30
2016,04,28,04,26,5.30
2016,04,28,04,27,5.30
2016,04,28,04,28,5.30
2016,04,28,04,29,5.30
2016,04,28,04,30,5.30
2016,04,28,04,31,5.30
2016,04,28,04,32,5.30
2016,04,28,04,33,5.30
2016,04,28,04,34,5.30
2016,04,28,04,35,5.20
2016,04,28,04,36,5.20
2016,04,28,04,37,5.20
2016,04,28,04,38,5.20
2016,04,28,04,39,5.20
2016,04,28,04,40,5.20
2016,04,28,04,41,5.10
2016,04,28,04,42,5.10
2016,04,28,04,43,5.10
2016,04,28,04,44,5.10
2016,04,28,04,45,5.10
2016,04,28,04,46,5.10
2016,04,28,04,47,5.00
2016,04,28,04,48,5.00
2016,04,28,04,49,5.00
2016,04,28,04,50,4.90
2016,04,28,04,51,4.90
2016,04,28,04,52,4.90
2016,04,28,04,53,4.90
2016,04,28,04,54,4.90
2016,04,28,04,55,4.90
2016,04,28,04,56,4.90
2016,04,28,04,57,4.90
2016,04,28,04,58,4.90
2016,04,28,04,59,4.90
2016,04,28,05,00,4.90
2016,04,28,05,01,4.90
2016,04,28,05,02,4.90
2016,04,28,05,03,4.90
2016,04,28,05,04,4.90
2016,04,28,05,05,4.90
2016,04,28,05,06,4.90
2016,04,28,05,07,4.80
2016,04,28,05,08,4.80
2016,04,28,05,09,4.80
2016,04,28,05,10,4.80
2016,04,28,05,11,4.80
2016,04,28,05,12,4.80
2016,04,28,05,13,4.80
2016,04,28,05,14,4.80
2016,04,28,05,15,4.80
2016,04,28,05,16,4.80
2016,04,28,05,17,4.80
2016,04,28,05,18,4.80
2016,04,28,05,19,4.80
2016,04,28,05,20,4.80
2016,04,28,05,21,4.80
2016,04,28,05,22,4.70
2016,04,28,05,23,4.70
2016,04,28,05,24,4.70
2016,04,28,05,25,4.70
2016,04,28,05,26,4.70
2016,04,28,05,27,4.70
2016,04,28,05,28,4.70
2016,04,28,05,29,4.70
2016,04,28,05,30,4.70
2016,04,28,05,31,4.70
2016,04,28,05,32,4.60
2016,04,28,05,33,4.60
2016,04,28,05,34,4.60
2016,04,28,05,35,4.60
2016,04,28,05,36,4.60
2016,04,28,05,37,4.60
2016,04,28,05,38,4.50
2016,04,28,05,39,4.50
2016,04,28,05,40,4.50
2016,04,28,05,41,4.50
2016,04,28,05,42,4.50
2016,04,28,05,43,4.50
2016,04,28,05,44,4.50
2016,04,28,05,45,4.50
2016,04,28,05,46,4.40
2016,04,28,05,47,4.40
2016,04,28,05,48,4.40
2016,04,28,05,49,4.40
2016,04,28,05,50,4.40
2016,04,28,05,51,4.40
2016,04,28,05,52,4.40
2016,04,28,05,53,4.40
2016,04,28,05,54,4.40
2016,04,28,05,55,4.40
2016,04,28,05,56,4.40
2016,04,28,05,57,4.40
2016,04,28,05,58,4.40
2016,04,28,05,59,4.40
2016,04,28,06,00,4.40
2016,04,28,06,01,4.40
2016,04,28,06,02,4.40
2016,04,28,06,03,4.40
2016,04,28,06,04,4.40
2016,04,28,06,05,4.40
2016,04,28,06,06,4.40
2016,04,28,06,07,4.40
2016,04,28,06,08,4.40
2016,04,28,06,09,4.40
2016,04,28,06,10,4.40
2016,04,28,06,11,4.40
2016,04,28,06,12,4.30
2016,04,28,06,13,4.30
2016,04,28,06,14,4.30
2016,04,28,06,15,4.30
2016,04,28,06,16,4.30
2016,04,28,06,17,4.30
2016,04,28,06,18,4.30
2016,04,28,06,19,4.30
2016,04,28,06,20,4.30
2016,04,28,06,21,4.30
2016,04,28,06,22,4.30
2016,04,28,06,23,4.30
2016,04,28,06,24,4.30
2016,04,28,06,25,4.30
2016,04,28,06,26,4.30
2016,04,28,06,27,4.30
2016,04,28,06,28,4.30
2016,04,28,06,29,4.30
2016,04,28,06,30,4.30
2016,04,28,06,31,4.30
2016,04,28,06,32,4.30
2016,04,28,06,33,4.30
2016,04,28,06,34,4.30
2016,04,28,06,35,4.30
2016,04,28,06,36,4.30
2016,04,28,06,37,4.30
2016,04,28,06,38,4.30
2016,04,28,06,39,4.30
2016,04,28,06,40,4.30
2016,04,28,06,41,4.40
2016,04,28,06,42,4.40
2016,04,28,06,43,4.40
2016,04,28,06,44,4.40
2016,04,28,06,45,4.40
2016,04,28,06,46,4.50
2016,04,28,06,47,4.50
2016,04,28,06,48,4.50
2016,04,28,06,49,4.50
2016,04,28,06,50,4.60
2016,04,28,06,51,4.60
2016,04,28,06,52,4.60
2016,04,28,06,53,4.70
2016,04,28,06,54,4.70
2016,04,28,06,55,4.80
2016,04,28,06,56,4.80
2016,04,28,06,57,4.90
2016,04,28,06,58,4.90
2016,04,28,06,59,5.00
2016,04,28,07,00,5.10
2016,04,28,07,01,5.10
2016,04,28,07,02,5.20
2016,04,28,07,03,5.20
2016,04,28,07,04,5.20
2016,04,28,07,05,5.20
2016,04,28,07,06,5.30
2016,04,28,07,07,5.30
2016,04,28,07,08,5.40
2016,04,28,07,09,5.40
2016,04,28,07,10,5.50
2016,04,28,07,11,5.50
2016,04,28,07,12,5.60
2016,04,28,07,13,5.60
2016,04,28,07,14,5.70
2016,04,28,07,15,5.70
2016,04,28,07,16,5.70
2016,04,28,07,17,5.80
2016,04,28,07,18,5.80
2016,04,28,07,19,5.90
2016,04,28,07,20,5.90
2016,04,28,07,21,6.00
2016,04,28,07,22,6.00
2016,04,28,07,23,6.10
2016,04,28,07,24,6.10
2016,04,28,07,25,6.20
2016,04,28,07,26,6.20
2016,04,28,07,27,6.30
2016,04,28,07,28,6.30
2016,04,28,07,29,6.30
2016,04,28,07,30,6.40
2016,04,28,07,31,6.50
2016,04,28,07,32,6.50
2016,04,28,07,33,6.60
2016,04,28,07,34,6.60
2016,04,28,07,35,6.70
2016,04,28,07,36,6.70
2016,04,28,07,37,6.80
2016,04,28,07,38,6.90
2016,04,28,07,39,6.90
2016,04,28,07,40,7.00
2016,04,28,07,41,7.10
2016,04,28,07,42,7.20
2016,04,28,07,43,7.30
2016,04,28,07,44,7.50
2016,04,28,07,45,7.60
2016,04,28,07,46,7.70
2016,04,28,07,47,7.80
2016,04,28,07,48,7.90
2016,04,28,07,49,8.00
2016,04,28,07,50,8.10
2016,04,28,07,51,8.20
2016,04,28,07,52,8.30
2016,04,28,07,53,8.50
2016,04,28,07,54,8.60
2016,04,28,07,55,8.70
2016,04,28,07,56,8.80
2016,04,28,07,57,8.90
2016,04,28,07,58,9.00
2016,04,28,07,59,9.00
2016,04,28,08,00,9.10
2016,04,28,08,01,9.20
2016,04,28,08,02,9.20
2016,04,28,08,03,9.30
2016,04,28,08,04,9.30
2016,04,28,08,05,9.40
2016,04,28,08,06,9.50
2016,04,28,08,07,9.50
2016,04,28,08,08,9.60
2016,04,28,08,09,9.70
2016,04,28,08,10,9.70
2016,04,28,08,11,9.80
2016,04,28,08,12,9.80
2016,04,28,08,13,9.90
2016,04,28,08,14,9.90
2016,04,28,08,15,10.00
2016,04,28,08,16,10.00
2016,04,28,08,17,10.10
2016,04,28,08,18,10.10
2016,04,28,08,19,10.20
2016,04,28,08,20,10.30
2016,04,28,08,21,10.30
2016,04,28,08,22,10.40
2016,04,28,08,23,10.40
2016,04,28,08,24,10.40
2016,04,28,08,25,10.50
2016,04,28,08,26,10.60
2016,04,28,08,27,10.60
2016,04,28,08,28,10.70
2016,04,28,08,29,10.80
2016,04,28,08,30,10.80
2016,04,28,08,31,10.90
2016,04,28,08,32,11.00
2016,04,28,08,33,11.00
2016,04,28,08,34,11.10
2016,04,28,08,35,11.20
2016,04,28,08,36,11.20
2016,04,28,08,37,11.30
2016,04,28,08,38,11.30
2016,04,28,08,39,11.40
2016,04,28,08,40,11.50
2016,04,28,08,41,11.50
2016,04,28,08,42,11.60
2016,04,28,08,43,11.70
2016,04,28,08,44,11.80
2016,04,28,08,45,11.80
2016,04,28,08,46,11.90
2016,04,28,08,47,11.90
2016,04,28,08,48,11.90
2016,04,28,08,49,12.00
2016,04,28,08,50,12.00
2016,04,28,08,51,12.10
2016,04,28,08,52,12.10
2016,04,28,08,53,12.10
2016,04,28,08,54,12.10
2016,04,28,08,55,12.10
2016,04,28,08,56,12.20
2016,04,28,08,57,12.20
2016,04,28,08,58,12.20
2016,04,28,08,59,12.20
2016,04,28,09,00,12.20
2016,04,28,09,01,12.20
2016,04,28,09,02,12.20
2016,04,28,09,03,12.20
2016,04,28,09,04,12.20
2016,04,28,09,05,12.20
2016,04,28,09,06,12.20
2016,04,28,09,07,12.30
2016,04,28,09,08,12.30
2016,04,28,09,09,12.40
2016,04,28,09,10,12.50
2016,04,28,09,11,12.50
2016,04,28,09,12,12.60
2016,04,28,09,13,12.60
2016,04,28,09,14,12.60
2016,04,28,09,15,12.70
2016,04,28,09,16,12.70
2016,04,28,09,17,12.70
2016,04,28,09,18,12.70
2016,04,28,09,19,12.60
2016,04,28,09,20,12.60
2016,04,28,09,21,12.60
2016,04,28,09,22,12.60
2016,04,28,09,23,12.60
2016,04,28,09,24,12.70
2016,04,28,09,25,12.70
2016,04,28,09,26,12.80
2016,04,28,09,27,12.80
2016,04,28,09,28,12.90
2016,04,28,09,29,12.90
2016,04,28,09,30,12.90
2016,04,28,09,31,12.90
2016,04,28,09,32,12.90
2016,04,28,09,33,12.80
2016,04,28,09,34,12.80
2016,04,28,09,35,12.80
2016,04,28,09,36,12.80
2016,04,28,09,37,12.80
2016,04,28,09,38,12.80
2016,04,28,09,39,12.80
2016,04,28,09,40,12.80
2016,04,28,09,41,12.80
2016,04,28,09,42,12.90
2016,04,28,09,43,12.90
2016,04,28,09,44,12.90
2016,04,28,09,45,12.90
2016,04,28,09,46,12.90
2016,04,28,09,47,12.90
2016,04,28,09,48,12.90
2016,04,28,09,49,12.90
2016,04,28,09,50,12.90
2016,04,28,09,51,12.90
2016,04,28,09,52,12.90
2016,04,28,09,53,12.90
2016,04,28,09,54,12.90
2016,04,28,09,55,13.00
2016,04,28,09,56,13.00
2016,04,28,09,57,13.00
2016,04,28,09,58,13.10
2016,04,28,09,59,13.10
2016,04,28,10,00,13.20
2016,04,28,10,01,13.20
2016,04,28,10,02,13.20
2016,04,28,10,03,13.20
2016,04,28,10,04,13.20
2016,04,28,10,05,13.20
2016,04,28,10,06,13.20
2016,04,28,10,07,13.20
2016,04,28,10,08,13.10
2016,04,28,10,09,13.10
2016,04,28,10,10,13.00
2016,04,28,10,11,12.90
2016,04,28,10,12,12.90
2016,04,28,10,13,12.90
2016,04,28,10,14,12.90
2016,04,28,10,15,12.90
2016,04,28,10,16,12.90
2016,04,28,10,17,12.90
2016,04,28,10,18,12.90
2016,04,28,10,19,12.90
2016,04,28,10,20,12.90
2016,04,28,10,21,13.00
2016,04,28,10,22,13.00
2016,04,28,10,23,13.00
2016,04,28,10,24,13.10
2016,04,28,10,25,13.00
2016,04,28,10,26,13.00
2016,04,28,10,27,12.90
2016,04,28,10,28,12.90
2016,04,28,10,29,12.90
2016,04,28,10,30,12.80
2016,04,28,10,31,12.80
2016,04,28,10,32,12.80
2016,04,28,10,33,12.80
2016,04,28,10,34,12.80
2016,04,28,10,35,12.80
2016,04,28,10,36,12.80
2016,04,28,10,37,12.80
2016,04,28,10,38,12.80
2016,04,28,10,39,12.80
2016,04,28,10,40,12.80
2016,04,28,10,41,12.90
2016,04,28,10,42,12.90
2016,04,28,10,43,12.90
2016,04,28,10,44,13.00
2016,04,28,10,45,13.00
2016,04,28,10,46,13.00
2016,04,28,10,47,13.00
2016,04,28,10,48,13.00
2016,04,28,10,49,13.00
2016,04,28,10,50,13.00
2016,04,28,10,51,13.00
2016,04,28,10,52,13.10
2016,04,28,10,53,13.10
2016,04,28,10,54,13.10
2016,04,28,10,55,13.10
2016,04,28,10,56,13.10
2016,04,28,10,57,13.10
2016,04,28,10,58,13.10
2016,04,28,10,59,13.10
2016,04,28,11,00,13.00
2016,04,28,11,01,13.00
2016,04,28,11,02,12.90
2016,04,28,11,03,12.90
2016,04,28,11,04,12.80
2016,04,28,11,05,12.80
2016,04,28,11,06,12.70
2016,04,28,11,07,12.80
2016,04,28,11,08,12.80
2016,04,28,11,09,12.80
2016,04,28,11,10,12.90
2016,04,28,11,11,12.90
2016,04,28,11,12,13.00
2016,04,28,11,13,13.10
2016,04,28,11,14,13.20
2016,04,28,11,15,13.20
2016,04,28,11,16,13.30
2016,04,28,11,17,13.40
2016,04,28,11,18,13.40
2016,04,28,11,19,13.40
2016,04,28,11,20,13.50
2016,04,28,11,21,13.50
2016,04,28,11,22,13.50
2016,04,28,11,23,13.60
2016,04,28,11,24,13.60
2016,04,28,11,25,13.60
2016,04,28,11,26,13.60
2016,04,28,11,27,13.60
2016,04,28,11,28,13.60
2016,04,28,11,29,13.60
2016,04,28,11,30,13.60
2016,04,28,11,31,13.60
2016,04,28,11,32,13.60
2016,04,28,11,33,13.60
2016,04,28,11,34,13.60
2016,04,28,11,35,13.60
2016,04,28,11,36,13.60
2016,04,28,11,37,13.60
2016,04,28,11,38,13.60
2016,04,28,11,39,13.60
2016,04,28,11,40,13.50
2016,04,28,11,41,13.50
2016,04,28,11,42,13.40
2016,04,28,11,43,13.40
2016,04,28,11,44,13.40
2016,04,28,11,45,13.40
2016,04,28,11,46,13.50
2016,04,28,11,47,13.50
2016,04,28,11,48,13.60
2016,04,28,11,49,13.60
2016,04,28,11,50,13.60
2016,04,28,11,51,13.60
2016,04,28,11,52,13.60
2016,04,28,11,53,13.60
2016,04,28,11,54,13.60
2016,04,28,11,55,13.60
2016,04,28,11,56,13.60
2016,04,28,11,57,13.60
2016,04,28,11,58,13.60
2016,04,28,11,59,13.60
2016,04,28,12,00,13.60
2016,04,28,12,01,13.70
2016,04,28,12,02,13.70
2016,04,28,12,03,13.80
2016,04,28,12,04,13.80
2016,04,28,12,05,13.80
2016,04,28,12,06,13.80
2016,04,28,12,07,13.80
2016,04,28,12,08,13.90
2016,04,28,12,09,13.90
2016,04,28,12,10,13.90
2016,04,28,12,11,13.90
2016,04,28,12,12,14.00
2016,04,28,12,13,14.00
2016,04,28,12,14,14.00
2016,04,28,12,15,14.00
2016,04,28,12,16,14.00
2016,04,28,12,17,14.00
2016,04,28,12,18,14.00
2016,04,28,12,19,14.00
2016,04,28,12,20,14.10
2016,04,28,12,21,14.10
2016,04,28,12,22,14.20
2016,04,28,12,23,14.20
2016,04,28,12,24,14.30
2016,04,28,12,25,14.40
2016,04,28,12,26,14.60
2016,04,28,12,27,14.70
2016,04,28,12,28,14.80
2016,04,28,12,29,14.80
2016,04,28,12,30,14.80
2016,04,28,12,31,14.80
2016,04,28,12,32,14.90
2016,04,28,12,33,14.90
2016,04,28,12,34,15.00
2016,04,28,12,35,15.00
2016,04,28,12,36,15.00
2016,04,28,12,37,15.00
2016,04,28,12,38,15.00
2016,04,28,12,39,15.00
2016,04,28,12,40,14.90
2016,04,28,12,41,14.90
2016,04,28,12,42,14.90
2016,04,28,12,43,14.80
2016,04,28,12,44,14.80
2016,04,28,12,45,14.80
2016,04,28,12,46,14.90
2016,04,28,12,47,14.90
2016,04,28,12,48,14.90
2016,04,28,12,49,14.90
2016,04,28,12,50,14.90
2016,04,28,12,51,14.90
2016,04,28,12,52,14.90
2016,04,28,12,53,14.90
2016,04,28,12,54,15.00
2016,04,28,12,55,15.00
2016,04,28,12,56,15.10
2016,04,28,12,57,15.10
2016,04,28,12,58,15.10
2016,04,28,12,59,15.10
2016,04,28,13,00,15.00
2016,04,28,13,01,15.00
2016,04,28,13,02,14.90
2016,04,28,13,03,14.80
2016,04,28,13,04,14.80
2016,04,28,13,05,14.80
2016,04,28,13,06,14.80
2016,04,28,13,07,14.80
2016,04,28,13,08,14.90
2016,04,28,13,09,14.90
2016,04,28,13,10,15.00
2016,04,28,13,11,15.10
2016,04,28,13,12,15.10
2016,04,28,13,13,15.10
2016,04,28,13,14,15.00
2016,04,28,13,15,15.00
2016,04,28,13,16,14.90
2016,04,28,13,17,14.80
2016,04,28,13,18,14.80
2016,04,28,13,19,14.80
2016,04,28,13,20,14.80
2016,04,28,13,21,14.80
2016,04,28,13,22,14.80
2016,04,28,13,23,14.80
2016,04,28,13,24,14.80
2016,04,28,13,25,14.90
2016,04,28,13,26,14.90
2016,04,28,13,27,14.90
2016,04,28,13,28,14.90
2016,04,28,13,29,14.80
2016,04,28,13,30,14.80
2016,04,28,13,31,14.70
2016,04,28,13,32,14.70
2016,04,28,13,33,14.60
2016,04,28,13,34,14.60
2016,04,28,13,35,14.60
2016,04,28,13,36,14.60
2016,04,28,13,37,14.50
2016,04,28,13,38,14.50
2016,04,28,13,39,14.50
2016,04,28,13,40,14.50
2016,04,28,13,41,14.60
2016,04,28,13,42,14.60
2016,04,28,13,43,14.60
2016,04,28,13,44,14.50
2016,04,28,13,45,14.50
2016,04,28,13,46,14.40
2016,04,28,13,47,14.30
2016,04,28,13,48,14.30
2016,04,28,13,49,14.30
2016,04,28,13,50,14.30
2016,04,28,13,51,14.30
2016,04,28,13,52,14.30
2016,04,28,13,53,14.30
2016,04,28,13,54,14.30
2016,04,28,13,55,14.40
2016,04,28,13,56,14.50
2016,04,28,13,57,14.50
2016,04,28,13,58,14.60
2016,04,28,13,59,14.70
2016,04,28,14,00,14.70
2016,04,28,14,01,14.70
2016,04,28,14,02,14.70
2016,04,28,14,03,14.80
2016,04,28,14,04,14.70
2016,04,28,14,05,14.70
2016,04,28,14,06,14.70
2016,04,28,14,07,14.70
2016,04,28,14,08,14.80
2016,04,28,14,09,14.80
2016,04,28,14,10,14.80
2016,04,28,14,11,14.80
2016,04,28,14,12,14.80
2016,04,28,14,13,14.80
2016,04,28,14,14,14.80
2016,04,28,14,15,14.90
2016,04,28,14,16,14.90
2016,04,28,14,17,14.90
2016,04,28,14,18,14.90
2016,04,28,14,19,14.90
2016,04,28,14,20,14.80
2016,04,28,14,21,14.80
2016,04,28,14,22,14.90
2016,04,28,14,23,15.00
2016,04,28,14,24,15.00
2016,04,28,14,25,15.10
2016,04,28,14,26,15.10
2016,04,28,14,27,15.10
2016,04,28,14,28,15.20
2016,04,28,14,29,15.20
2016,04,28,14,30,15.30
2016,04,28,14,31,15.30
2016,04,28,14,32,15.30
2016,04,28,14,33,15.30
2016,04,28,14,34,15.30
2016,04,28,14,35,15.30
2016,04,28,14,36,15.30
2016,04,28,14,37,15.30
2016,04,28,14,38,15.30
2016,04,28,14,39,15.30
2016,04,28,14,40,15.40
2016,04,28,14,41,15.50
2016,04,28,14,42,15.50
2016,04,28,14,43,15.60
2016,04,28,14,44,15.60
2016,04,28,14,45,15.70
2016,04,28,14,46,15.80
2016,04,28,14,47,15.80
2016,04,28,14,48,15.90
2016,04,28,14,49,16.00
2016,04,28,14,50,16.20
2016,04,28,14,51,16.30
2016,04,28,14,52,16.40
2016,04,28,14,53,16.40
2016,04,28,14,54,16.50
2016,04,28,14,55,16.50
2016,04,28,14,56,16.50
2016,04,28,14,57,16.50
2016,04,28,14,58,16.50
2016,04,28,14,59,16.50
2016,04,28,15,00,16.60
2016,04,28,15,01,16.60
2016,04,28,15,02,16.60
2016,04,28,15,03,16.70
2016,04,28,15,04,16.70
2016,04,28,15,05,16.80
2016,04,28,15,06,16.90
2016,04,28,15,07,17.00
2016,04,28,15,08,17.00
2016,04,28,15,09,17.10
2016,04,28,15,10,17.20
2016,04,28,15,11,17.20
2016,04,28,15,12,17.30
2016,04,28,15,13,17.30
2016,04,28,15,14,17.40
2016,04,28,15,15,17.50
2016,04,28,15,16,17.60
2016,04,28,15,17,17.80
2016,04,28,15,18,17.90
2016,04,28,15,19,18.10
2016,04,28,15,20,18.20
2016,04,28,15,21,18.30
2016,04,28,15,22,18.40
2016,04,28,15,23,18.50
2016,04,28,15,24,18.50
2016,04,28,15,25,18.50
2016,04,28,15,26,18.50
2016,04,28,15,27,18.50
2016,04,28,15,28,18.50
2016,04,28,15,29,18.50
2016,04,28,15,30,18.50
2016,04,28,15,31,18.50
2016,04,28,15,32,18.50
2016,04,28,15,33,18.50
2016,04,28,15,34,18.60
2016,04,28,15,35,18.60
2016,04,28,15,36,18.60
2016,04,28,15,37,18.60
2016,04,28,15,38,18.60
2016,04,28,15,39,18.60
2016,04,28,15,40,18.60
2016,04,28,15,41,18.60
2016,04,28,15,42,18.60
2016,04,28,15,43,18.60
2016,04,28,15,44,18.60
2016,04,28,15,45,18.50
2016,04,28,15,46,18.50
2016,04,28,15,47,18.40
2016,04,28,15,48,18.40
2016,04,28,15,49,18.40
2016,04,28,15,50,18.30
2016,04,28,15,51,18.30
2016,04,28,15,52,18.30
2016,04,28,15,53,18.30
2016,04,28,15,54,18.30
2016,04,28,15,55,18.20
2016,04,28,15,56,18.20
2016,04,28,15,57,18.20
2016,04,28,15,58,18.20
2016,04,28,15,59,18.10
2016,04,28,16,00,18.10
2016,04,28,16,01,18.10
2016,04,28,16,02,18.20
2016,04,28,16,03,18.20
2016,04,28,16,04,18.20
2016,04,28,16,05,18.30
2016,04,28,16,06,18.30
2016,04,28,16,07,18.30
2016,04,28,16,08,18.30
2016,04,28,16,09,18.20
2016,04,28,16,10,18.20
2016,04,28,16,11,18.20
2016,04,28,16,12,18.20
2016,04,28,16,13,18.20
2016,04,28,16,14,18.20
2016,04,28,16,15,18.10
2016,04,28,16,16,18.10
2016,04,28,16,17,18.00
2016,04,28,16,18,18.00
2016,04,28,16,19,17.90
2016,04,28,16,20,17.90
2016,04,28,16,21,17.90
2016,04,28,16,22,17.90
2016,04,28,16,23,17.90
2016,04,28,16,24,17.90
2016,04,28,16,25,17.90
2016,04,28,16,26,17.90
2016,04,28,16,27,17.90
2016,04,28,16,28,17.90
2016,04,28,16,29,17.90
2016,04,28,16,30,17.90
2016,04,28,16,31,17.90
2016,04,28,16,32,17.90
2016,04,28,16,33,18.00
2016,04,28,16,34,18.00
2016,04,28,16,35,18.00
2016,04,28,16,36,18.00
2016,04,28,16,37,18.00
2016,04,28,16,38,18.00
2016,04,28,16,39,18.00
2016,04,28,16,40,18.00
2016,04,28,16,41,18.00
2016,04,28,16,42,17.90
2016,04,28,16,43,17.90
2016,04,28,16,44,17.90
2016,04,28,16,45,17.90
2016,04,28,16,46,17.90
2016,04,28,16,47,17.80
2016,04,28,16,48,17.80
2016,04,28,16,49,17.80
2016,04,28,16,50,17.80
2016,04,28,16,51,17.90
2016,04,28,16,52,17.90
2016,04,28,16,53,17.90
2016,04,28,16,54,18.00
2016,04,28,16,55,18.00
2016,04,28,16,56,17.90
2016,04,28,16,57,17.90
2016,04,28,16,58,17.80
2016,04,28,16,59,17.80
2016,04,28,17,00,17.80
2016,04,28,17,01,17.70
2016,04,28,17,02,17.70
2016,04,28,17,03,17.70
2016,04,28,17,04,17.70
2016,04,28,17,05,17.60
2016,04,28,17,06,17.60
2016,04,28,17,07,17.50
2016,04,28,17,08,17.50
2016,04,28,17,09,17.40
2016,04,28,17,10,17.40
2016,04,28,17,11,17.40
2016,04,28,17,12,17.40
2016,04,28,17,13,17.40
2016,04,28,17,14,17.40
2016,04,28,17,15,17.40
2016,04,28,17,16,17.40
2016,04,28,17,17,17.40
2016,04,28,17,18,17.30
2016,04,28,17,19,17.30
2016,04,28,17,20,17.20
2016,04,28,17,21,17.10
2016,04,28,17,22,17.00
2016,04,28,17,23,16.90
2016,04,28,17,24,16.80
2016,04,28,17,25,16.80
2016,04,28,17,26,16.70
2016,04,28,17,27,16.70
2016,04,28,17,28,16.60
2016,04,28,17,29,16.60
2016,04,28,17,30,16.60
2016,04,28,17,31,16.50
2016,04,28,17,32,16.50
2016,04,28,17,33,16.40
2016,04,28,17,34,16.40
2016,04,28,17,35,16.40
2016,04,28,17,36,16.40
2016,04,28,17,37,16.40
2016,04,28,17,38,16.40
2016,04,28,17,39,16.40
2016,04,28,17,40,16.40